Location: Auckland
(36.8670°S, 174.7670°E)
Time: 18:13:04
(UTC+12:00)

Courier 1B Rocket - Pass Details

Date: 24 July 2019
Orbit: 920 x 1202 km, 28.3° (Epoch: 19 August)

Event Time Altitude Azimuth Distance (km) Brightness Sun altitude
Rises 08:37:24 0° 275° (W) 3,987 7.7 11.5°
Reaches altitude 10° 08:40:56 10° 289° (WNW) 2,976 7.2 12.0°
Maximum altitude 08:46:17 22° 336° (NNW) 2,135 7.1 12.9°
Drops below altitude 10° 08:51:22 10° 24° (NNE) 2,808 8.8 13.7°
Sets 08:54:36 0° 39° (NE) 3,706 9.8 14.2°
